Tracking 31027 objects as of 19-Jul-2025
HD Live streaming from Space Station
objects crossing your sky now

STARLINK-4038

Track STARLINK-4038 now!
10-day predictions
STARLINK-4038 is classified as:


NORAD ID: 53150
Int'l Code: 2022-083U
Perigee: 545.8 km
Apogee: 548.0 km
Inclination: 53.2 °
Period: 95.4 minutes
Semi major axis: 6917 km
RCS: Unknown
Launch date: July 17, 2022
Source: United States (US)
Launch site: AIR FORCE EASTERN TEST RANGE (AFETR)
Your satellite tracking list
STARLINK-1749
Track 1 satellite(s)




NASA's NSSDC Master Catalog

Two Line Element Set (TLE):
1 53150U 22083U   25199.85181865 -.00000061  00000-0  14279-4 0  9992
2 53150  53.2176 133.8631 0001545 100.8877 259.2289 15.08831597166682
Source of the keplerian elements: AFSPC